CZ-3B DEB, 39333

Orbit data source: Space-Track

CZ-3B DEB, 39333 is space debris in HEO originally from a launch on Sat, 04 Sep 2010 UTC launched from the Xichang Space Center, China (XSC). Debris objects in space refer to the collection of defunct objects orbiting the Earth. Examples of debris include non-operational satellites, rocket bodies, and fragments generated from explosions, collisions, or faulty payload assembly.

Loading next visibility...
Identifier
39333, 2010-042E
Orbit
HEO
Last TLE update
2 days ago
Origin
Manufacturer
CALT
Mission
Spacecraft
Bus & Motor
Unknown
Mass
Unknown
Launch date (UTC)
2010-09-04 (15 years ago)
Launch vehicle
Unknown
Launch site
Xichang Space Center, China (XSC)
Object type
Payload
Rocket body
Debris
Shape & HBR
Unknown
Radar Cross Section
Medium (>0.1 m² and <1 m²)

Expand to show TLE details & history

TLE from 2 days ago
0 CZ-3B DEB
1 39333U 10042E   25198.32080131  .00000217  00000-0  16735-2 0  9995
2 39333  23.6512 112.2789 7485859 332.9081 292.1589  1.91221314 83702
Epoch: 2025-07-17T07:41Z
TLE epoch observation values (Epoch: 2025-07-17T07:41:57.233Z)
Latitude
-1.40917°
Longitude
-115.46097°
Altitude
27,593.578 km
Speed
2.988 km/s
True Right ascension
19h 41m 39s
True Declination
-1° 24' 27"
Sunlit
Object was in daylight at epoch
Visualization orbit readout
Latitude
-16.22973°
Longitude
19.6436°
Altitude
649.312 km
Speed
9.946 km/s
Apparent Right ascension
02h 57m 15s
Apparent Declination
-31° 12' 29"
Sunlit
Object is in daylight
Visualization observer readout
Local Sidereal Time
12:27:20
Azimuth
274.191° WNW
Elevation
-58.548°
Doppler factor
1
Orbital elements
Apogee altitude
41,572.874 km
Perigee altitude
516.326 km
Semi-major axis
27,422.737 km
Eccentricity
0.74859
Inclination
23.6512°
RAAN
112.2789°
Arg. of periapsis
332.9081°
True anomaly
210.52988°
Mean anomaly
292.1589°
Eccentric anomaly
251.4875°
Mean motion
0.47794 °/min
Orbital period
753.23 mins
BSTAR
0.0016735
Loading maneuver chart data...
Loading SW <> Apogee altitude chart data...
Loading historical data...
Loading historical data...
Loading historical data...
Loading historical data...
Loading historical data...
Loading historical data...
Loading historical data...
|